Weather History for Homer, AK

Change the Weather History Date:

Thursday, January 5, 2012

  Actual Average Record
Temperature  
Mean Temperature 20 °F -  
Max Temperature 27 °F 28 °F 49 °F (1953)
Min Temperature 10 °F 15 °F -17 °F (1975)
Degree Days  
Heating Degree Days 46    
Moisture  
Dew Point 17 °F    
Average Humidity 87    
Maximum Humidity 100    
Minimum Humidity 59    
Precipitation  
Precipitation 0.18 in - - ()
Sea Level Pressure  
Sea Level Pressure 29.39 in    
Wind  
Wind Speed 8 mph (West)    
Max Wind Speed 17 mph    
Max Gust Speed 24 mph    
Visibility 6 miles    
Events Fog , Snow    
Averages and records for this station are not official NWS values.
T = Trace of Precipitation, MM = Missing Value Source: NWS Daily Summary

Daily Weather History Graph

Daily Weather History Graph

Search for Another Location

Airport:

Trip Planner

Search our weather history database for the weather conditions in past years. The results will help you decide how hot, cold, wet, or windy it might be!

Date:

Astronomy

Jan. 05, 2012 Rise Set
Actual Time 10:02 AM AKST 4:20 PM AKST
Civil Twilight 9:07 AM AKST 5:15 PM AKST
Nautical Twilight 8:12 AM AKST 6:10 PM AKST
Astronomical Twilight 7:22 AM AKST 7:00 PM AKST
Moon 1:27 PM AKST (1/5) 6:59 AM AKST (1/5)
Length of Visible Light 8h 07m
Length of Day
6h 17m
Waxing Gibbous, 88% of the Moon is Illuminated
Jan 5
Waxing Gibbous
Jan 8
Full
Jan 16
Last Quarter
Jan 22
New
Jan 30
First Quarter

Hourly Weather History & Observations

Time (AKST) Temp. Windchill Dew Point Humidity Pressure Visibility Wind Dir Wind Speed Gust Speed Precip Events Conditions
12:53 AM 15.1 °F 2.5 °F 8.1 °F 74% 29.34 in 10.0 mi ENE 10.4 mph - N/A   Overcast
1:53 AM 23.0 °F 10.1 °F 10.9 °F 60% 29.30 in 10.0 mi ENE 15.0 mph - N/A   Overcast
2:09 AM 24.8 °F 11.9 °F 15.8 °F 69% 29.28 in 2.5 mi ENE 16.1 mph 24.2 mph 0.00 in Snow Light Snow
2:20 AM 24.8 °F 14.0 °F 15.8 °F 69% 29.28 in 1.5 mi NE 11.5 mph - 0.00 in Snow Light Snow
2:34 AM 24.8 °F 15.3 °F 19.4 °F 80% 29.29 in 0.8 mi East 9.2 mph - 0.01 in Snow Light Snow
2:53 AM 25.0 °F 15.5 °F 24.1 °F 96% 29.29 in 0.5 mi East 9.2 mph - 0.04 in Fog , Snow Snow
3:10 AM 26.6 °F 18.2 °F 26.6 °F 100% 29.29 in 1.0 mi ESE 8.1 mph - 0.03 in Snow Light Snow
3:20 AM 26.6 °F 17.5 °F 26.6 °F 100% 29.29 in 0.8 mi East 9.2 mph - 0.04 in Snow Light Snow
3:40 AM 26.6 °F 21.2 °F 26.6 °F 100% 29.30 in 2.0 mi ENE 4.6 mph - 0.07 in Snow Light Snow
3:42 AM 26.6 °F 22.6 °F 26.6 °F 100% 29.30 in 3.0 mi ENE 3.5 mph - 0.07 in Snow Light Snow
3:53 AM 27.0 °F 21.6 °F 27.0 °F 100% 29.31 in 9.0 mi NNE 4.6 mph - 0.07 in   Overcast
4:10 AM 26.6 °F 21.2 °F 26.6 °F 100% 29.30 in 10.0 mi NNE 4.6 mph - N/A   Overcast
4:53 AM 25.0 °F - 25.0 °F 100% 29.31 in 10.0 mi Calm Calm - N/A   Overcast
5:53 AM 27.0 °F 17.3 °F 25.0 °F 92% 29.31 in 2.5 mi SSE 10.4 mph - 0.01 in Snow Light Snow
6:01 AM 26.6 °F 22.6 °F 24.8 °F 93% 29.30 in 4.0 mi South 3.5 mph - 0.00 in Snow Light Snow
6:53 AM 24.1 °F 19.7 °F 24.1 °F 100% 29.31 in 4.0 mi ESE 3.5 mph - 0.01 in Snow Light Snow
7:20 AM 24.8 °F 15.3 °F 23.0 °F 93% 29.31 in 2.5 mi SW 9.2 mph - 0.00 in Snow Light Snow
7:29 AM 24.8 °F 17.9 °F 23.0 °F 93% 29.31 in 1.2 mi West 5.8 mph - 0.01 in Snow Light Snow
7:53 AM 24.1 °F 18.2 °F 23.0 °F 96% 29.31 in 3.0 mi NE 4.6 mph - 0.01 in Snow Light Snow
8:06 AM 23.0 °F - 23.0 °F 100% 29.31 in 9.0 mi Calm Calm - 0.00 in   Overcast
8:53 AM 19.0 °F - 19.0 °F 100% 29.32 in 3.0 mi Calm Calm - 0.00 in   Partly Cloudy
9:15 AM 17.6 °F 10.7 °F 17.6 °F 100% 29.32 in 8.0 mi East 4.6 mph - N/A   Mostly Cloudy
9:53 AM 19.9 °F - 19.9 °F 100% 29.34 in 10.0 mi Calm Calm - N/A   Overcast
10:07 AM 19.4 °F 14.3 °F 19.4 °F 100% 29.34 in 10.0 mi NW 3.5 mph - N/A   Scattered Clouds
10:53 AM 23.0 °F 14.7 °F 21.9 °F 96% 29.37 in 9.0 mi West 6.9 mph - N/A   Scattered Clouds
10:59 AM 23.0 °F 14.7 °F 21.2 °F 93% 29.36 in 2.0 mi West 6.9 mph - 0.00 in Snow Light Snow
11:24 AM 23.0 °F - 23.0 °F 100% 29.37 in 1.0 mi Calm Calm - 0.03 in Snow Light Snow
11:37 AM 23.0 °F 17.0 °F 23.0 °F 100% 29.38 in 2.0 mi West 4.6 mph - 0.03 in Snow Light Snow
11:51 AM 21.2 °F 12.6 °F 21.2 °F 100% 29.38 in 5.0 mi WSW 6.9 mph - 0.04 in   Mostly Cloudy
11:53 AM 21.9 °F 13.4 °F 21.0 °F 96% 29.39 in 5.0 mi West 6.9 mph - 0.04 in   Mostly Cloudy
12:33 PM 21.2 °F 14.9 °F 19.4 °F 93% 29.40 in 10.0 mi WNW 4.6 mph - N/A   Overcast
12:53 PM 18.0 °F 8.7 °F 14.0 °F 84% 29.42 in 10.0 mi NNW 6.9 mph - N/A   Overcast
1:41 PM 15.8 °F 10.2 °F 10.4 °F 79% 29.45 in 6.0 mi Variable 3.5 mph - 0.00 in Snow Light Snow
1:53 PM 15.1 °F 5.2 °F 10.0 °F 80% 29.47 in 9.0 mi Variable 6.9 mph - 0.00 in   Overcast
2:53 PM 16.0 °F - 10.9 °F 81% 29.49 in 10.0 mi Calm Calm - N/A   Overcast
3:53 PM 17.1 °F - 12.0 °F 81% 29.52 in 10.0 mi Calm Calm - 0.00 in Snow Light Snow
4:53 PM 16.0 °F 8.8 °F 12.0 °F 84% 29.53 in 10.0 mi West 4.6 mph - 0.00 in   Mostly Cloudy
5:53 PM 17.1 °F 4.3 °F 10.0 °F 74% 29.55 in 10.0 mi WSW 11.5 mph - N/A   Mostly Cloudy
6:53 PM 16.0 °F 3.6 °F 6.1 °F 65% 29.56 in 10.0 mi WSW 10.4 mph - N/A   Mostly Cloudy
7:53 PM 15.1 °F -0.1 °F 3.9 °F 61% 29.57 in 10.0 mi WSW 15.0 mph 21.9 mph N/A   Overcast
8:53 PM 14.0 °F 0.5 °F 1.9 °F 59% 29.59 in 10.0 mi WSW 11.5 mph - N/A   Overcast
9:53 PM 12.0 °F -3.4 °F 1.0 °F 61% 29.60 in 10.0 mi WSW 13.8 mph 23.0 mph N/A   Scattered Clouds
10:53 PM 12.0 °F -4.5 °F 1.0 °F 61% 29.61 in 10.0 mi WSW 16.1 mph - N/A   Partly Cloudy
11:53 PM 10.0 °F -7.6 °F -0.0 °F 64% 29.62 in 10.0 mi West 17.3 mph 24.2 mph N/A   Clear